RH
29 26 23 22 22 22 18 16 26 54 83 94 100 63 68 72 69 73 80 78 93 93 93 77 6 20 95 98 98 62 49 30 28 26 27 26 20 22 25 29 41 38 41 37 29 30 28
32 25 24 24 23 20 17 44 78 93 99 97 95 77 76 58 66 74 78 89 86 88 85 77 14 26 100 98 99 88 50 38 26 28 27 28 23 25 28 26 29 47 45 34 28 29 26
30 26 27 24 21 15 29 66 100 100 98 100 91 83 73 59 65 70 79 76 80 81 82 69 24 38 100 98 96 99 57 48 31 34 30 29 27 36 38 36 34 51 40 34 25 22 23
35 30 26 23 17 8 34 68 100 100 94 99 90 86 74 80 82 77 75 71 65 62 61 56 34 63 97 91 89 94 51 64 52 58 58 37 31 40 56 55 51 46 50 42 28 23 25
45 31 25 20 12 10 39 55 82 100 99 98 97 84 60 60 81 80 86 88 76 68 60 58 28 99 98 62 94 73 58 81 80 87 81 68 46 60 68 68 71 70 63 49 39 30 28
51 32 24 17 6 26 42 60 90 97 87 86 86 85 46 58 83 72 80 84 83 68 60 57 36 99 82 59 90 80 82 94 78 79 77 82 66 75 73 99 85 89 87 51 40 36 35
54 29 22 10 20 39 60 75 77 72 49 68 69 47 39 50 71 76 74 71 72 76 76 54 34 97 88 70 97 100 88 100 98 97 93 77 93 86 68 97 85 74 75 65 47 53 53
58 28 18 7 32 46 43 48 62 84 93 64 36 29 30 37 55 68 90 81 66 74 63 61 52 99 96 98 97 84 90 94 96 99 99 94 100 83 86 72 73 91 85 71 68 74 75
54 27 13 19 35 28 32 31 42 86 93 99 98 96 91 59 62 82 92 96 60 69 52 91 99 98 100 96 98 92 78 84 92 96 98 98 96 92 92 88 82 96 91 79 77 80 78
43 24 11 25 22 19 27 35 30 77 73 61 64 81 87 97 93 89 79 64 66 67 69 99 88 99 100 96 99 99 84 88 97 100 98 99 94 100 99 100 94 89 78 80 82 78 74
40 20 11 22 13 18 23 30 24 50 64 51 68 69 75 78 86 66 60 64 62 74 90 98 88 95 98 96 84 99 99 91 98 99 91 98 97 92 99 98 99 95 94 86 84 80 75
46 21 11 21 13 15 19 25 23 24 42 46 68 77 77 75 88 70 52 46 92 91 98 98 98 98 99 85 82 98 99 96 99 99 100 96 99 99 99 99 99 99 95 90 85 78 77
54 25 12 22 12 13 17 23 22 20 25 42 59 83 80 74 68 58 58 93 93 93 96 95 98 98 86 88 77 99 98 96 99 98 99 98 99 95 97 98 98 100 96 76 67 72 78
62 29 12 19 15 12 18 23 26 30 29 34 44 64 57 60 66 77 94 88 89 100 100 98 98 97 99 100 99 94 99 99 93 90 91 93 99 99 98 92 82 94 91 67 64 73 77
70 45 16 16 21 16 17 24 31 30 35 47 54 62 64 71 71 73 79 89 98 98 98 98 93 93 97 98 91 99 95 92 95 86 81 89 90 99 97 96 93 96 96 81 69 87 85
76 52 31 15 21 22 26 36 41 44 38 52 68 73 77 68 72 71 83 98 100 90 93 89 88 94 98 98 93 88 88 76 88 87 80 82 84 98 96 96 95 84 80 81 67 70 75
69 62 46 14 18 22 26 39 40 45 50 55 62 72 84 71 79 68 90 96 94 89 84 72 64 79 80 80 80 87 76 78 81 88 86 76 74 99 97 91 90 92 87 71 64 71 82
65 77 61 23 13 20 25 31 41 49 50 56 64 72 78 74 75 98 100 100 94 87 76 63 66 60 66 76 73 84 81 70 84 82 78 76 75 93 95 89 90 93 86 77 62 81 85
62 70 62 32 21 13 22 26 30 38 44 54 60 76 77 67 100 92 94 92 88 81 73 66 68 67 67 69 77 79 82 75 69 80 86 80 77 77 92 93 96 95 87 88 78 75 79
63 70 72 64 25 19 10 25 26 29 37 47 53 60 69 67 76 94 96 93 84 84 78 72 69 67 72 70 63 73 71 74 76 82 92 86 79 69 74 82 80 85 75 81 88 90 82
61 68 71 77 46 25 18 10 30 24 28 39 50 53 58 66 74 77 78 83 83 91 89 80 76 69 69 68 74 72 76 76 81 81 96 92 83 78 73 79 83 82 79 80 83 76 76
59 62 68 73 80 43 25 17 12 36 30 32 46 58 61 54 61 66 70 74 76 74 68 73 71 76 84 80 74 69 80 80 92 89 90 95 86 88 78 72 74 73 71 80 83 79 74
70 65 67 68 81 90 26 23 16 12 36 33 34 47 53 59 58 56 55 63 74 78 84 82 79 86 84 84 88 82 80 88 91 88 91 91 90 82 78 88 89 79 70 70 61 65 71
83 70 68 70 77 91 53 27 24 15 8 34 36 36 50 50 55 58 59 62 75 79 78 88 95 92 86 87 87 93 94 89 92 90 94 89 92 93 86 80 96 79 78 79 77 83 90
91 80 78 74 79 89 78 26 28 23 16 6 15 36 44 35 43 51 58 61 66 67 66 76 90 98 93 91 90 89 93 92 87 90 90 93 97 95 98 97 79 62 80 94 82 82 87
90 86 87 85 81 91 96 24 28 28 24 18 13 5 21 46 46 37 51 59 65 65 68 67 71 86 96 98 96 91 84 87 90 89 86 96 94 97 96 99 96 92 97 90 86 94 90
86 86 87 91 91 95 97 34 24 27 29 26 23 18 15 8 26 56 55 60 55 64 67 66 74 79 79 87 99 96 88 84 93 95 100 100 100 99 95 95 73 71 95 96 94 88 90
86 88 88 90 95 95 97 55 23 24 27 30 29 28 25 21 18 11 41 67 72 69 77 75 81 94 98 99 96 89 82 81 89 86 93 82 87 99 100 98 85 73 81 96 90 86 86
87 86 90 95 98 96 96 94 25 24 26 28 31 31 31 30 26 22 16 11 59 88 90 94 83 86 90 90 89 89 82 80 84 94 92 85 75 80 78 77 76 82 94 98 86 83 84
Wind_Speed
32 34 36 39 42 45 48 50 49 37 31 24 25 26 23 24 25 27 25 24 28 30 27 23 31 40 37 35 28 5 16 26 30 30 31 33 35 36 36 38 36 37 35 33 29 33 35
35 36 38 41 44 48 50 46 38 34 27 26 26 22 23 22 21 22 19 18 17 20 22 23 29 42 36 33 19 20 8 23 27 30 31 31 33 33 31 33 35 31 36 33 31 35 35
36 38 41 44 48 51 50 38 31 31 27 29 24 21 20 17 15 16 14 15 15 16 17 18 29 41 38 39 19 19 18 16 25 27 30 30 30 28 26 29 29 31 22 30 35 33 30
39 40 42 46 49 54 44 36 30 33 29 25 24 19 16 15 14 14 13 13 12 14 13 14 23 35 29 45 23 24 22 19 23 25 25 27 27 26 22 19 20 21 27 19 23 31 31
40 42 43 46 52 49 43 45 36 31 29 24 21 19 16 15 11 15 17 15 13 13 10 12 24 30 21 44 24 27 24 21 25 24 23 24 25 25 21 19 16 18 14 31 26 18 20
40 43 44 48 52 46 47 43 34 30 31 20 18 22 19 15 13 17 19 24 16 9 11 15 23 25 23 41 27 31 25 23 29 29 27 29 26 28 27 22 18 16 16 13 21 19 23
41 41 45 50 47 46 45 41 38 34 29 21 23 20 19 17 19 21 20 17 8 9 10 14 26 17 19 28 30 30 28 23 30 29 33 34 30 34 33 23 10 11 12 15 14 18 22
41 43 46 47 45 45 45 41 35 31 30 24 22 21 20 20 22 22 22 11 5 7 10 18 34 15 20 16 31 28 29 23 23 17 31 32 29 27 21 23 22 14 10 11 10 14 19
41 43 47 46 46 43 41 35 35 33 30 29 26 24 21 20 22 23 20 10 4 2 19 24 22 13 18 20 30 29 28 23 22 21 17 24 19 21 19 20 23 17 14 11 14 17 20
36 39 44 44 42 39 37 34 36 33 30 27 24 20 17 13 11 5 4 7 10 21 18 12 26 13 18 19 29 28 28 19 18 15 15 21 11 22 21 22 23 23 15 16 12 9 6
37 38 42 41 38 38 35 33 34 31 27 31 31 26 17 13 4 10 12 16 27 19 5 17 29 18 22 21 27 21 22 20 18 21 8 6 9 12 16 29 23 17 12 11 10 10 12
34 35 39 38 34 33 34 31 31 31 27 29 30 28 24 21 18 16 21 29 15 4 6 9 15 25 25 9 31 27 21 18 14 11 10 11 14 12 15 16 18 8 9 8 11 10 2
31 32 34 35 29 27 29 27 29 29 27 29 29 30 29 28 28 26 27 13 6 8 9 17 19 27 21 19 31 25 17 20 8 12 15 14 12 8 8 9 8 8 6 1 2 1 4
27 30 30 31 27 22 24 27 26 30 29 26 27 27 27 27 20 12 7 8 11 12 16 28 30 26 23 23 20 27 13 21 10 7 13 9 5 11 12 11 7 13 10 3 4 1 3
24 27 28 27 26 21 20 24 22 22 24 23 23 24 17 14 10 11 20 26 10 11 21 27 26 26 21 18 19 18 15 13 9 7 4 7 5 13 11 11 10 11 11 12 1 1 1
24 20 26 20 22 21 18 19 20 23 20 19 17 14 14 15 13 22 30 29 24 33 31 25 14 13 15 17 16 16 15 15 11 9 10 8 6 11 11 11 12 7 6 6 5 2 3
25 17 25 18 18 17 18 17 16 17 16 14 13 14 17 13 13 20 32 33 31 26 20 12 7 15 22 20 16 16 16 10 16 13 11 6 6 8 10 8 13 14 13 5 5 2 3
23 18 20 23 16 14 16 16 15 13 13 15 14 11 11 9 16 22 24 20 20 17 12 9 7 15 19 18 19 18 18 4 19 13 11 10 5 5 10 6 8 12 12 14 5 5 4
24 21 18 23 19 14 13 16 16 13 14 11 11 13 11 8 17 20 16 15 12 12 12 7 8 11 10 13 9 21 14 15 11 20 10 10 3 5 2 8 12 12 17 16 13 4 8
21 22 17 22 22 17 13 13 16 16 14 13 8 2 8 10 14 15 12 7 8 6 5 6 7 8 12 13 7 18 15 17 8 17 18 10 7 4 5 0 2 9 15 18 18 8 8
21 22 20 19 23 19 14 11 15 14 13 11 10 4 4 3 4 7 12 10 6 5 5 5 8 8 13 10 5 9 12 11 9 12 21 14 6 8 11 12 14 11 8 15 25 23 13
25 23 23 22 24 20 16 11 10 14 12 9 5 3 1 4 6 6 4 5 7 9 7 6 13 13 6 3 5 6 14 11 9 14 15 16 6 4 8 10 13 17 18 21 20 19 25
28 29 28 23 23 22 17 12 10 11 13 11 9 8 5 4 3 4 4 4 5 6 7 10 9 5 4 3 3 6 8 4 1 7 15 12 9 4 3 3 6 14 10 20 18 15 13
31 31 31 28 24 23 16 13 11 11 11 14 12 12 12 9 9 8 6 6 5 4 4 7 6 7 5 3 6 7 3 7 3 4 12 8 10 8 5 5 1 2 4 6 2 5 8
32 33 33 32 26 23 16 14 11 11 10 9 15 14 17 18 14 13 12 11 9 6 5 9 9 8 9 7 7 5 4 5 9 7 8 12 11 3 2 5 12 9 7 3 2 1 4
34 35 33 33 23 21 19 12 12 12 11 8 8 11 15 16 18 19 19 18 17 14 12 10 12 13 14 12 10 7 7 6 7 6 13 12 12 12 4 3 3 1 8 2 6 6 2
30 28 25 23 22 17 19 12 13 13 13 12 9 10 10 13 15 17 20 22 21 19 17 14 14 15 16 15 13 8 7 8 7 9 11 17 15 16 14 7 8 8 5 3 2 3 9
24 22 21 21 18 17 19 13 14 13 14 14 13 14 14 15 13 17 20 24 24 22 20 14 14 18 16 15 14 11 10 11 10 10 10 13 12 11 12 8 10 8 10 4 5 9 11
22 22 20 18 16 17 20 22 14 15 15 15 16 18 20 21 19 19 20 22 28 26 26 23 19 10 15 12 15 10 10 8 13 8 17 12 12 7 11 4 5 9 10 9 10 12 13
Wind_Direction
333 333 332 330 330 330 327 325 324 324 314 320 318 315 307 304 300 293 287 284 272 267 265 243 216 208 213 233 212 183 204 210 214 208 207 206 205 206 212 216 218 224 229 229 227 231 240
338 337 334 334 335 333 331 331 328 323 315 315 318 316 315 315 306 299 293 282 277 268 264 256 216 202 210 224 211 198 190 201 211 207 203 206 209 207 214 220 221 231 233 235 234 237 241
340 340 338 339 338 335 334 330 326 320 319 318 314 309 313 318 318 314 307 288 276 267 262 260 217 198 206 213 218 195 194 199 203 206 201 202 206 203 210 219 222 223 236 236 238 242 247
343 341 342 342 339 338 337 332 324 320 316 318 317 311 302 304 317 321 322 303 278 269 261 247 216 190 218 209 223 192 185 186 192 196 198 201 200 202 206 204 217 222 230 233 237 240 243
344 342 345 344 341 343 342 340 332 322 320 318 321 311 304 304 313 321 317 312 283 258 236 228 202 186 211 197 214 185 179 181 177 185 188 192 196 195 202 198 196 200 222 228 237 244 241
346 345 346 346 345 349 350 344 337 332 325 321 316 313 308 294 303 315 321 326 282 266 222 217 193 189 205 201 219 172 175 176 179 179 179 183 187 193 200 189 194 189 208 219 230 239 244
346 347 347 350 350 354 349 346 345 343 338 324 315 308 305 296 292 306 313 323 280 217 210 183 180 172 186 200 183 176 177 172 180 183 187 184 181 196 200 190 186 202 211 231 236 245 256
347 348 351 353 354 355 351 349 348 347 340 334 322 314 305 293 288 295 305 326 276 208 202 156 167 132 187 184 165 181 181 177 187 188 157 175 193 197 200 205 206 200 215 230 235 249 263
350 351 353 354 358 358 355 355 352 354 350 340 332 322 311 302 292 287 288 282 219 171 146 147 176 165 170 189 168 175 175 177 183 189 162 180 196 203 195 197 208 208 212 229 256 267 271
350 354 357 355 358 1 359 358 6 8 2 8 1 348 335 326 6 83 154 144 129 132 132 137 169 166 168 173 157 171 172 180 177 179 194 196 168 193 193 196 203 209 218 240 253 281 282
350 357 358 357 359 4 1 358 12 21 20 22 24 22 20 19 53 90 107 123 132 113 94 132 182 162 159 155 164 167 170 188 188 190 166 165 200 228 201 197 200 212 203 230 261 283 294
350 358 358 356 358 6 5 6 20 30 32 34 34 36 45 59 68 93 115 132 117 71 73 140 138 147 149 136 163 162 172 172 171 164 186 164 160 181 183 178 176 176 215 254 275 278 278
350 355 1 355 355 10 12 15 33 37 38 44 44 51 50 61 71 101 124 110 35 53 106 134 133 140 146 143 169 170 161 178 155 148 133 144 141 136 165 171 186 202 209 302 332 57 219
353 350 0 359 355 6 23 25 35 38 40 47 58 52 67 82 75 60 42 57 61 70 97 128 130 136 121 138 154 173 166 171 175 165 150 152 149 169 175 190 203 203 205 203 220 205 287
351 346 353 0 358 359 22 28 21 26 36 43 57 60 48 35 37 67 95 74 63 68 114 134 135 126 132 152 160 160 163 176 170 169 173 153 124 185 181 199 203 204 211 220 147 18 350
345 346 342 356 358 354 10 31 23 27 27 39 37 37 47 65 86 100 102 89 104 120 125 135 118 147 148 160 170 184 169 193 190 189 198 170 140 188 201 205 209 210 191 184 192 117 265
344 336 333 351 352 347 352 13 23 27 30 30 19 32 70 76 106 113 105 111 127 133 140 146 128 156 161 166 187 172 176 188 200 204 208 211 200 176 196 224 228 216 218 193 167 191 152
338 327 325 335 352 338 340 347 12 32 19 21 17 47 57 81 109 105 111 125 134 147 150 131 125 164 172 178 186 185 192 146 202 215 214 197 178 165 203 229 229 226 238 220 207 187 170
329 336 318 327 337 339 329 326 340 346 353 7 39 58 66 70 84 101 114 132 142 159 172 149 147 171 182 186 192 197 199 214 241 205 206 198 187 142 188 236 227 223 223 220 223 197 215
323 333 316 311 322 335 338 308 312 323 335 342 351 16 63 63 77 93 95 109 151 169 202 198 184 174 183 186 192 202 207 210 209 207 213 213 228 220 194 6 232 219 235 224 223 208 221
315 323 326 301 306 323 332 329 295 304 313 326 343 320 324 73 80 85 91 85 88 128 198 153 179 201 183 176 193 194 202 193 209 208 207 216 239 248 253 268 269 259 253 225 225 235 247
308 316 317 314 296 303 317 337 309 289 296 301 301 8 66 86 102 99 80 83 85 76 105 157 142 140 166 251 214 223 189 205 174 193 213 201 230 290 286 260 261 263 253 244 247 248 260
302 309 312 307 309 286 307 316 328 293 275 276 269 260 220 269 247 165 137 127 115 122 113 119 129 137 144 202 253 128 193 211 235 217 192 207 236 297 279 291 278 281 273 242 243 259 270
300 301 305 306 305 302 283 299 319 311 284 265 262 255 244 249 251 247 221 188 185 211 205 181 182 177 174 141 150 149 176 193 191 204 210 212 225 265 291 308 303 190 122 90 200 244 256
297 297 301 302 303 291 265 288 299 304 295 293 259 257 258 249 244 249 253 244 233 228 229 224 218 204 214 197 179 179 189 188 226 221 204 217 227 243 269 264 284 276 223 220 313 356 143
299 299 299 300 294 281 260 278 284 293 291 288 295 274 260 257 245 239 242 246 249 253 249 243 230 223 225 224 215 211 195 196 193 211 220 215 223 228 208 262 255 219 184 184 318 157 259
302 304 301 297 292 271 256 267 276 284 286 291 291 285 284 278 260 252 240 243 246 247 248 249 232 223 223 226 221 226 222 195 198 196 197 211 224 227 234 256 272 272 223 230 243 190 315
306 302 302 302 293 275 262 256 276 278 282 285 287 289 290 283 277 263 251 243 240 238 237 236 223 224 219 214 221 226 235 223 222 220 213 206 206 206 216 223 257 219 205 213 311 293 301
304 303 301 306 290 280 277 248 273 275 277 280 288 294 294 289 276 273 257 251 242 237 232 226 217 208 210 208 215 218 229 226 225 221 219 216 213 211 217 243 201 181 206 277 298 301 305